Location: �bnet
(46.9957°N, 8.4908°E)
Time: 15:58:36
(UTC+00:00)

Cosmos 1782 Rocket - Pass Details

Date: 11 May 2021
Orbit: 606 x 633 km, 82.5° (Epoch: 17 June)

Event Time Altitude Azimuth Distance (km) Brightness Sun altitude
Rises 23:45:11 0° 344° (NNW) 2,931 8.1 -24.7°
Reaches altitude 10° 23:47:32 10° 337° (NNW) 2,015 7.0 -24.6°
Enters shadow 23:51:22 40° 280° (W) 934 4.4 -24.5°
